Volver al catálogo

STARLINK-3244

ActivoComunicacionesVLEO
NORAD 49741·PAYLOAD·🇺🇸 United States

Lanzado Dec 2, 2021 desde Cape Canaveral Space Force Station

Loading…

Próximos Pases (próximas 24 horas)

TLE

ActualizadoSource: CelesTrak SupGP

Época: Sep 14, 2026, 20:27 UTC

1 49741C 21115T   26257.85256944 -.00005645  00000+0 -18151-3 0  2577
2 49741  53.1586   6.0825 0001382  69.5000 181.1741 15.31705791    13

Sigue STARLINK-3244 en tiempo real con AllMySat

Download on the App Store